• In Latvia
  • List of Countries
  • For 7 days
  • Water Temperature
  • Satellite Maps
  • Weather Map
  • Weather Widgets
  • user-avatar
    Login

    Hourly Weather Solden

    Today, 27 July, Thursday

    Time Temperature Precipitation Wind Pressure Humidity
    00:00 +1°C° 0 mm 2 mps 579 mmHg 86%
    01:00 +1°C° 0 mm 2 mps 579 mmHg 85%
    02:00 +1°C° 0 mm 2 mps 579 mmHg 85%
    03:00 -1°C° 0 mm 2 mps 579 mmHg 84%
    04:00 -1°C° 0 mm 2 mps 579 mmHg 84%
    05:00 +2°C° 0 mm 2 mps 580 mmHg 75%
    06:00 +4°C° 0 mm 2 mps 581 mmHg 66%
    07:00 +6°C° 0 mm 2 mps 582 mmHg 58%
    08:00 +9°C° 0 mm 1 mps 583 mmHg 52%
    09:00 +11°C° 0 mm 1 mps 584 mmHg 46%
    10:00 +12°C° 0 mm 0 mps 585 mmHg 40%
    11:00 +14°C° 0.2 mm 1 mps 585 mmHg 41%
    12:00 +14°C° 0.2 mm 1 mps 585 mmHg 43%
    13:00 +15°C° 0.2 mm 1 mps 585 mmHg 45%
    14:00 +15°C° 0.1 mm 1 mps 585 mmHg 46%
    15:00 +15°C° 0.1 mm 1 mps 585 mmHg 47%
    16:00 +15°C° 0.1 mm 2 mps 585 mmHg 48%
    17:00 +14°C° 0.3 mm 1 mps 584 mmHg 57%
    18:00 +12°C° 0.3 mm 1 mps 584 mmHg 65%
    19:00 +11°C° 0.3 mm 1 mps 583 mmHg 74%
    20:00 +10°C° 0.3 mm 1 mps 583 mmHg 77%
    21:00 +9°C° 0.3 mm 1 mps 583 mmHg 81%
    22:00 +8°C° 0.3 mm 1 mps 582 mmHg 85%
    23:00 +7°C° 0.2 mm 1 mps 582 mmHg 86%

    Tomorrow, 28 July, Friday

    Time Temperature Precipitation Wind Pressure Humidity
    00:00 +7°C° 0.2 mm 1 mps 582 mmHg 87%
    01:00 +7°C° 0.2 mm 1 mps 582 mmHg 87%
    02:00 +6°C° 0 mm 1 mps 582 mmHg 88%
    03:00 +6°C° 0 mm 1 mps 582 mmHg 88%
    04:00 +5°C° 0 mm 1 mps 582 mmHg 88%
    05:00 +7°C° 0 mm 1 mps 582 mmHg 84%
    06:00 +8°C° 0 mm 1 mps 583 mmHg 80%
    07:00 +10°C° 0 mm 1 mps 584 mmHg 76%
    08:00 +12°C° 0 mm 1 mps 585 mmHg 69%
    09:00 +14°C° 0 mm 1 mps 586 mmHg 62%
    10:00 +16°C° 0 mm 1 mps 587 mmHg 55%
    11:00 +16°C° 0.1 mm 1 mps 588 mmHg 55%
    12:00 +17°C° 0.1 mm 2 mps 588 mmHg 54%
    13:00 +17°C° 0.1 mm 2 mps 588 mmHg 53%
    14:00 +17°C° 0.3 mm 2 mps 588 mmHg 55%
    15:00 +17°C° 0.3 mm 2 mps 588 mmHg 56%
    16:00 +17°C° 0.3 mm 2 mps 588 mmHg 58%
    17:00 +16°C° 0.3 mm 2 mps 588 mmHg 65%
    18:00 +15°C° 0.3 mm 2 mps 587 mmHg 73%
    19:00 +13°C° 0.3 mm 2 mps 587 mmHg 80%
    20:00 +12°C° 0.1 mm 1 mps 586 mmHg 85%
    21:00 +10°C° 0.1 mm 1 mps 586 mmHg 90%
    22:00 +9°C° 0.1 mm 1 mps 586 mmHg 95%
    23:00 +9°C° 0 mm 1 mps 586 mmHg 95%

    Day after tomorrow, 29 July, Saturday

    Time Temperature Precipitation Wind Pressure Humidity
    00:00 +8°C° 0 mm 1 mps 586 mmHg 95%
    01:00 +8°C° 0 mm 1 mps 586 mmHg 95%
    02:00 +8°C° 0 mm 1 mps 586 mmHg 95%
    03:00 +8°C° 0 mm 1 mps 586 mmHg 95%
    04:00 +8°C° 0 mm 1 mps 586 mmHg 95%
    05:00 +9°C° 0 mm 1 mps 586 mmHg 92%
    06:00 +10°C° 0 mm 1 mps 587 mmHg 88%
    07:00 +12°C° 0 mm 1 mps 588 mmHg 85%
    08:00 +13°C° 0 mm 1 mps 589 mmHg 78%
    09:00 +15°C° 0 mm 1 mps 589 mmHg 71%
    10:00 +16°C° 0 mm 1 mps 590 mmHg 64%
    11:00 +17°C° 0.5 mm 2 mps 590 mmHg 63%
    12:00 +17°C° 0.5 mm 2 mps 590 mmHg 63%
    13:00 +17°C° 0.5 mm 2 mps 590 mmHg 62%
    14:00 +17°C° 1 mm 2 mps 590 mmHg 64%
    15:00 +17°C° 1 mm 2 mps 590 mmHg 65%
    16:00 +17°C° 1 mm 2 mps 589 mmHg 67%
    17:00 +15°C° 1.2 mm 2 mps 589 mmHg 73%
    18:00 +14°C° 1.2 mm 1 mps 589 mmHg 79%
    19:00 +13°C° 1.2 mm 1 mps 588 mmHg 85%
    20:00 +12°C° 0.7 mm 1 mps 588 mmHg 88%
    21:00 +11°C° 0.7 mm 1 mps 588 mmHg 91%
    22:00 +10°C° 0.7 mm 1 mps 587 mmHg 94%
    23:00 +10°C° 0.6 mm 1 mps 587 mmHg 94%

    30 July, Sunday

    Time Temperature Precipitation Wind Pressure Humidity
    00:00 +10°C° 0.6 mm 1 mps 587 mmHg 95%
    01:00 +10°C° 0.6 mm 1 mps 587 mmHg 95%
    02:00 +10°C° 0.6 mm 1 mps 587 mmHg 94%
    03:00 +10°C° 0.6 mm 1 mps 587 mmHg 94%
    04:00 +10°C° 0.6 mm 1 mps 586 mmHg 94%
    05:00 +10°C° 0.2 mm 1 mps 587 mmHg 91%
    06:00 +11°C° 0.2 mm 1 mps 587 mmHg 88%
    07:00 +12°C° 0.2 mm 1 mps 587 mmHg 86%
    08:00 +14°C° 0.2 mm 1 mps 588 mmHg 77%
    09:00 +15°C° 0.2 mm 1 mps 589 mmHg 69%
    10:00 +18°C° 0.2 mm 1 mps 590 mmHg 60%
    11:00 +18°C° 0.7 mm 1 mps 589 mmHg 60%
    12:00 +18°C° 0.7 mm 2 mps 589 mmHg 60%
    13:00 +18°C° 0.7 mm 2 mps 589 mmHg 60%
    14:00 +17°C° 1.3 mm 2 mps 589 mmHg 63%
    15:00 +17°C° 1.3 mm 2 mps 588 mmHg 67%
    16:00 +16°C° 1.3 mm 2 mps 588 mmHg 71%
    17:00 +15°C° 1.2 mm 1 mps 588 mmHg 76%
    18:00 +14°C° 1.2 mm 1 mps 587 mmHg 81%
    19:00 +13°C° 1.2 mm 1 mps 587 mmHg 85%
    20:00 +12°C° 0.8 mm 1 mps 587 mmHg 88%
    21:00 +11°C° 0.8 mm 1 mps 587 mmHg 90%
    22:00 +10°C° 0.8 mm 1 mps 587 mmHg 92%
    23:00 +10°C° 0.4 mm 1 mps 586 mmHg 92%

    31 July, Monday

    Time Temperature Precipitation Wind Pressure Humidity
    00:00 +10°C° 0.4 mm 1 mps 586 mmHg 92%
    01:00 +10°C° 0.4 mm 1 mps 586 mmHg 91%
    02:00 +9°C° 0.1 mm 1 mps 586 mmHg 91%
    03:00 +9°C° 0.1 mm 1 mps 586 mmHg 91%
    04:00 +8°C° 0.1 mm 1 mps 585 mmHg 91%
    05:00 +9°C° 0 mm 1 mps 586 mmHg 87%
    06:00 +11°C° 0 mm 1 mps 587 mmHg 83%
    07:00 +12°C° 0 mm 1 mps 588 mmHg 78%
    08:00 +14°C° 0 mm 1 mps 589 mmHg 69%
    09:00 +18°C° 0 mm 1 mps 590 mmHg 60%
    10:00 +20°C° 0 mm 1 mps 591 mmHg 51%
    11:00 +20°C° 0.1 mm 1 mps 591 mmHg 50%
    12:00 +20°C° 0.1 mm 2 mps 591 mmHg 48%
    13:00 +21°C° 0.1 mm 2 mps 591 mmHg 46%
    14:00 +20°C° 0.1 mm 2 mps 590 mmHg 48%
    15:00 +20°C° 0.1 mm 2 mps 590 mmHg 50%
    16:00 +20°C° 0.1 mm 2 mps 590 mmHg 52%
    17:00 +18°C° 0.1 mm 2 mps 589 mmHg 60%
    18:00 +17°C° 0.1 mm 2 mps 589 mmHg 68%
    19:00 +16°C° 0.1 mm 2 mps 588 mmHg 76%
    20:00 +14°C° 0.1 mm 2 mps 588 mmHg 82%
    21:00 +13°C° 0.1 mm 2 mps 587 mmHg 87%
    22:00 +10°C° 0.1 mm 2 mps 587 mmHg 93%
    23:00 +10°C° 0 mm 2 mps 587 mmHg 93%

    1 August, Tuesday

    Time Temperature Precipitation Wind Pressure Humidity
    00:00 +10°C° 0 mm 2 mps 586 mmHg 92%
    01:00 +9°C° 0 mm 2 mps 586 mmHg 91%
    02:00 +9°C° 0 mm 2 mps 586 mmHg 91%
    03:00 +9°C° 0 mm 2 mps 586 mmHg 91%
    04:00 +8°C° 0 mm 2 mps 586 mmHg 91%
    05:00 +9°C° 0 mm 2 mps 586 mmHg 86%
    06:00 +12°C° 0 mm 2 mps 587 mmHg 81%
    07:00 +13°C° 0 mm 2 mps 587 mmHg 77%
    08:00 +15°C° 0 mm 2 mps 588 mmHg 65%
    09:00 +17°C° 0 mm 2 mps 589 mmHg 54%
    10:00 +19°C° 0 mm 3 mps 590 mmHg 42%
    11:00 +20°C° 0 mm 3 mps 590 mmHg 40%
    12:00 +21°C° 0 mm 3 mps 590 mmHg 38%
    13:00 +22°C° 0 mm 4 mps 590 mmHg 36%
    14:00 +21°C° 0.2 mm 4 mps 589 mmHg 38%
    15:00 +21°C° 0.2 mm 4 mps 589 mmHg 40%
    16:00 +21°C° 0.2 mm 4 mps 589 mmHg 42%
    17:00 +19°C° 0.4 mm 3 mps 588 mmHg 51%
    18:00 +17°C° 0.4 mm 2 mps 588 mmHg 60%
    19:00 +15°C° 0.4 mm 2 mps 587 mmHg 69%
    20:00 +14°C° 1 mm 1 mps 587 mmHg 74%
    21:00 +12°C° 1 mm 1 mps 587 mmHg 79%
    22:00 +11°C° 1 mm 1 mps 587 mmHg 84%
    23:00 +10°C° 0.2 mm 1 mps 587 mmHg 85%
    Show more